CST,Max TemperatureF,Mean TemperatureF,Min TemperatureF,Max Dew PointF,MeanDew PointF,Min DewpointF,Max Humidity, Mean Humidity, Min Humidity, Max Sea Level PressureIn, Mean Sea Level PressureIn, Min Sea Level PressureIn, Max VisibilityMiles, Mean VisibilityMiles, Min VisibilityMiles, Max Wind SpeedMPH, Mean Wind SpeedMPH, Max Gust SpeedMPH,PrecipitationIn, CloudCover, Events, WindDirDegrees
2014-2-1,25,20,14,20,15,8,96,82,67,30.15,30.01,29.91,10,4,1,13,7,15,0.32,8,Snow,6
2014-2-2,19,3,-13,13,1,-14,91,75,58,30.38,30.31,30.13,10,10,10,14,7,17,0.00,3,Fog,308
2014-2-3,15,-2,-19,1,-9,-21,92,72,51,30.45,30.42,30.33,10,10,9,8,2,9,0.00,2,Fog,179
2014-2-4,20,10,-1,14,8,-4,87,74,61,30.47,30.33,30.18,10,5,1,18,6,23,0.06,8,Snow,28
2014-2-5,20,11,2,16,10,-3,92,77,62,30.50,30.32,30.14,10,6,1,23,13,28,0.09,5,Snow,342
2014-2-6,5,-1,-8,-5,-9,-13,87,72,56,30.53,30.47,30.42,10,10,9,18,8,22,T,3,Snow,271
2014-2-7,11,1,-10,-1,-6,-14,83,70,57,30.44,30.40,30.37,10,10,10,16,7,20,0.00,2,,217
2014-2-8,14,10,6,10,7,-1,92,81,69,30.36,30.21,30.13,10,4,0,12,5,14,0.13,8,Fog-Snow,149
2014-2-9,15,6,-3,9,1,-9,100,80,59,30.37,30.26,30.18,10,7,3,17,8,21,0.00,2,Fog,305
2014-2-10,7,-4,-15,-6,-11,-19,81,68,55,30.56,30.48,30.38,10,10,10,14,5,16,0.00,0,Fog,293
2014-2-11,8,-6,-21,-4,-13,-24,86,71,55,30.60,30.52,30.42,10,10,10,9,4,10,0.00,0,Fog,177
2014-2-12,20,7,-6,13,5,-10,83,72,61,30.40,30.21,30.02,10,9,2,13,7,15,0.02,7,Snow,167
2014-2-13,32,23,14,25,14,5,78,70,61,30.01,29.73,29.55,10,9,2,29,13,36,T,7,Snow,212
2014-2-14,19,13,7,8,5,0,80,71,61,30.04,29.85,29.70,10,10,10,16,9,22,0.00,4,,310
2014-2-15,17,4,-9,12,5,-9,95,78,61,30.15,30.04,29.96,10,7,1,14,7,16,0.06,6,Snow,178
2014-2-16,25,18,11,14,11,8,92,74,55,30.31,30.19,29.96,10,9,7,16,8,22,T,6,,8
2014-2-17,31,26,20,26,19,15,92,85,77,30.25,29.90,29.71,10,3,0,29,13,38,0.39,8,Fog-Snow,151
2014-2-18,44,27,10,29,23,8,92,75,57,29.96,29.79,29.66,10,9,5,23,10,30,0.00,4,Fog,197
2014-2-19,40,35,30,28,26,24,85,70,54,29.99,29.91,29.71,10,10,7,14,7,22,T,4,,232
2014-2-20,44,39,33,43,34,28,100,91,82,29.90,29.49,29.17,10,5,0,35,17,48,0.69,8,Fog-Rain-Snow-Thunderstorm,115
2014-2-21,35,28,21,28,15,10,82,64,46,29.87,29.63,29.33,10,8,2,38,22,49,T,5,Snow,256
2014-2-22,30,22,14,14,10,6,73,60,47,30.14,30.03,29.88,10,10,10,15,8,20,0.00,4,,265
2014-2-23,24,18,11,10,5,2,67,59,50,30.30,30.25,30.15,10,10,10,20,12,24,0.00,2,,298
2014-2-24,22,14,6,8,5,1,80,66,51,30.35,30.30,30.28,10,10,10,20,9,23,0.00,5,,280
2014-2-25,16,9,2,6,0,-7,80,66,51,30.32,30.28,30.23,10,10,9,22,12,27,T,3,Snow,297
2014-2-26,17,6,-5,6,-5,-12,75,61,46,30.33,30.06,29.70,10,10,10,32,14,43,0.00,2,,257
2014-2-27,15,5,-6,0,-11,-14,65,53,41,30.25,30.13,29.77,10,10,10,29,10,37,0.00,1,,306
2014-2-28,27,11,-6,20,6,-12,75,68,60,30.25,30.12,30.00,10,9,2,23,9,28,T,6,Snow,141